Location: Chequamegon National Forest
(46.1070°N, 90.8420°W)
Time: 09:28:45
(UTC-05:00)

ISS - All Passes

Search period start: 02 October 2014 00:00
Search period end: 12 October 2014 00:00
Orbit: 413 x 416 km, 51.6° (Epoch: 02 October)

Date Brightness Start Highest point End Pass type
(mag) Time Alt. Az. Time Alt. Az. Time Alt. Az.
02 Oct - 00:28:58 10° W 00:32:06 37° NNW 00:35:14 10° ENE night (unlit)
02 Oct - 02:06:17 10° WNW 02:09:20 32° N 02:12:22 10° ENE night (unlit)
02 Oct - 03:43:00 10° WNW 03:46:20 81° NNE 03:49:40 10° ESE night (unlit)
02 Oct - 05:20:23 10° W 05:22:41 17° SW 05:24:57 10° S visible
02 Oct - 22:03:04 10° SSW 22:06:11 38° SE 22:09:19 10° ENE night (unlit)
02 Oct - 23:39:38 10° W 23:42:51 46° NNW 23:46:06 10° ENE night (unlit)
03 Oct - 01:17:02 10° WNW 01:20:02 30° N 01:23:02 10° ENE night (unlit)
03 Oct - 02:53:52 10° WNW 02:57:10 56° NNE 03:00:26 10° ESE night (unlit)
03 Oct - 04:30:48 10° W 04:33:42 28° SW 04:36:35 10° SSE night (unlit)
03 Oct - 21:14:25 10° SSW 21:17:09 24° SE 21:19:54 10° E night (unlit)
03 Oct - 22:50:19 10° WSW 22:53:37 64° NNW 22:56:56 10° ENE night (unlit)
04 Oct - 00:27:42 10° WNW 00:30:43 30° N 00:33:43 10° ENE night (unlit)
04 Oct - 02:04:42 10° WNW 02:07:55 42° NNE 02:11:06 10° E night (unlit)
04 Oct - 03:41:26 10° WNW 03:44:39 45° SW 03:47:50 10° SE night (unlit)
04 Oct - 20:26:12 10° S 20:28:09 15° SE 20:30:06 10° E visible
04 Oct - 22:01:05 10° WSW 22:04:25 87° SSE 22:07:45 10° ENE night (unlit)
04 Oct - 23:38:18 10° WNW 23:41:22 33° N 23:44:26 10° ENE night (unlit)
05 Oct - 01:15:30 10° WNW 01:18:36 35° N 01:21:42 10° E night (unlit)
05 Oct - 02:52:10 10° WNW 02:55:30 73° SSW 02:58:48 10° SE night (unlit)
05 Oct - 04:30:20 10° WSW 04:31:40 12° SW 04:33:00 10° SSW night (unlit)
05 Oct - 21:11:58 10° SW 21:15:14 55° SSE 21:18:30 10° ENE visible
05 Oct - 22:48:52 10° W 22:52:02 39° NNW 22:55:11 10° ENE night (unlit)
06 Oct - 00:26:13 10° WNW 00:29:14 31° N 00:32:16 10° ENE night (unlit)
06 Oct - 02:02:56 10° WNW 02:06:17 74° NNE 02:09:36 10° ESE night (unlit)
06 Oct - 03:40:11 10° W 03:42:40 20° SW 03:45:08 10° S night (unlit)
06 Oct - 20:23:02 10° SSW 20:26:04 34° SE 20:29:07 10° ENE visible
06 Oct - 21:59:26 10° W 22:02:41 50° NNW 22:05:57 10° ENE visible
06 Oct - 23:36:51 10° WNW 23:39:50 30° N 23:42:50 10° ENE night (unlit)
07 Oct - 01:13:42 10° WNW 01:16:59 52° NNE 01:20:14 10° E night (unlit)
07 Oct - 02:50:34 10° WNW 02:53:34 31° SW 02:56:33 10° SSE night (unlit)
07 Oct - 19:34:22 10° S 19:36:57 21° SE 19:39:32 10° E visible
07 Oct - 21:10:02 10° WSW 21:13:21 70° NNW 21:16:41 10° ENE visible
07 Oct - 22:47:24 10° WNW 22:50:25 31° N 22:53:26 10° ENE night (unlit)
08 Oct - 00:24:26 10° WNW 00:27:37 40° NNE 00:30:47 10° E night (unlit)
08 Oct - 02:01:08 10° WNW 02:04:23 51° SW 02:07:37 10° SE night (unlit)
08 Oct - 18:46:15 10° SSE 18:47:51 13° SE 18:49:28 10° ESE daylight
08 Oct - 20:20:44 10° WSW 20:24:03 78° SSE 20:27:23 10° ENE visible
08 Oct - 21:57:53 10° WNW 22:00:58 34° N 22:04:04 10° ENE visible
08 Oct - 23:35:07 10° WNW 23:38:11 34° N 23:41:16 10° ENE night (unlit)
09 Oct - 01:11:47 10° WNW 01:15:07 82° SSW 01:18:27 10° ESE night (unlit)
09 Oct - 02:49:35 10° WSW 02:51:21 14° SW 02:53:06 10° SSW night (unlit)
09 Oct - 19:31:33 10° SW 19:34:46 48° SE 19:38:00 10° ENE visible
09 Oct - 21:08:20 10° W 21:11:31 41° NNW 21:14:43 10° ENE visible
09 Oct - 22:45:42 10° WNW 22:48:43 31° N 22:51:44 10° ENE night (unlit)
10 Oct - 00:22:27 10° WNW 00:25:47 67° NNE 00:29:05 10° ESE night (unlit)
10 Oct - 01:59:33 10° W 02:02:13 22° SW 02:04:51 10° S night (unlit)
10 Oct - 18:42:35 10° SSW 18:45:32 30° SE 18:48:29 10° ENE daylight
10 Oct - 20:18:49 10° W 20:22:05 54° NNW 20:25:22 10° ENE visible
10 Oct - 21:56:13 10° WNW 21:59:13 30° N 22:02:12 10° ENE visible
10 Oct - 23:33:07 10° WNW 23:36:22 48° NNE 23:39:36 10° E night (unlit)
11 Oct - 01:09:55 10° WNW 01:13:00 36° SW 01:16:04 10° SSE night (unlit)
11 Oct - 17:53:56 10° S 17:56:19 19° SE 17:58:43 10° E daylight
11 Oct - 19:29:20 10° WSW 19:32:40 78° NNW 19:36:00 10° ENE visible
11 Oct - 21:06:39 10° WNW 21:09:41 31° N 21:12:43 10° ENE visible
11 Oct - 22:43:44 10° WNW 22:46:53 38° NNE 22:50:01 10° E night (unlit)
